Date,TemperatureHighF,TemperatureAvgF,TemperatureLowF,DewpointHighF,DewpointAvgF,DewpointLowF,HumidityHigh,HumidityAvg,HumidityLow,PressureMaxIn,PressureMinIn,WindSpeedMaxMPH,WindSpeedAvgMPH,GustSpeedMaxMPH,PrecipitationSumIn
2013-2-1,-200.0,0.0,200.0,-99.9,-99.9,-99.9,0,0,100,0.00,40.00,0,-999,0,0.00
2013-2-2,-200.0,0.0,200.0,-99.9,-99.9,-99.9,0,0,100,0.00,40.00,0,-999,0,0.00
2013-2-3,-200.0,0.0,200.0,-99.9,-99.9,-99.9,0,0,100,0.00,40.00,0,-999,0,0.00
2013-2-4,28.2,16.1,14.2,13.0,-26.7,-99.9,74,33,34,29.77,0.00,21,-296,0,0.00
2013-2-5,25.2,16.1,7.7,9.0,0.7,-5.0,73,53,28,29.94,29.78,6,1,0,0.00
2013-2-6,36.4,23.8,15.7,24.0,11.9,-5.0,78,62,35,30.19,29.84,12,4,0,0.00
2013-2-7,19.8,13.8,9.3,-2.0,-7.5,-12.0,55,39,25,30.49,30.20,13,3,0,0.00
2013-2-8,16.8,12.7,9.3,15.0,6.4,-8.0,91,77,41,30.49,29.80,17,5,0,0.00
2013-2-9,19.3,14.0,10.0,13.0,10.0,8.0,90,84,67,30.01,29.57,28,14,0,0.00
2013-2-10,35.9,21.6,8.8,10.0,4.9,-1.0,71,51,27,30.26,30.01,12,3,0,0.00
2013-2-11,39.2,24.0,9.6,38.0,21.5,6.0,97,90,68,30.26,29.48,5,0,0,0.33
2013-2-12,42.5,36.1,30.6,33.0,30.7,28.0,97,82,62,29.68,29.44,17,5,0,0.04
2013-2-13,42.1,34.6,28.0,29.0,25.7,23.0,86,71,51,29.72,29.65,8,2,0,0.00
2013-2-14,39.8,32.5,24.7,25.0,22.3,20.0,85,67,46,29.91,29.63,11,2,0,0.00
2013-2-15,44.2,33.4,22.6,37.0,29.7,21.0,95,86,72,29.91,29.82,19,2,0,0.00
2013-2-16,34.5,31.6,27.0,32.0,29.3,15.0,96,91,61,29.85,29.67,14,4,0,0.01
2013-2-17,27.1,21.6,18.4,20.0,13.2,5.0,92,71,55,29.67,29.08,23,12,0,0.00
2013-2-18,29.4,21.0,13.6,11.0,5.0,0.0,60,51,39,29.94,29.37,26,14,0,0.00
2013-2-19,42.8,30.2,15.7,42.0,16.6,0.0,97,60,31,30.01,29.50,7,1,0,0.55
2013-2-20,43.1,42.7,42.3,42.0,41.8,41.0,96,96,96,29.48,29.45,4,2,0,0.04